Location: Windsor
(43.2292°N, 89.3015°W)
Time: 08:56:24
(UTC+00:00)

BEESAT - Pass Details

Date: 07 July 2022
Orbit: 700 x 706 km, 98.6° (Epoch: 13 August)

Event Time Altitude Azimuth Distance (km) Brightness Sun altitude
Rises 03:09:44 0° 5° (N) 3,106 ? -13.2°
Reaches altitude 10° 03:12:08 10° 357° (N) 2,184 ? -13.5°
Maximum altitude 03:16:28 35° 292° (WNW) 1,126 ? -14.0°
Drops below altitude 10° 03:20:47 10° 227° (SW) 2,173 ? -14.5°
Sets 03:23:11 0° 218° (SW) 3,087 ? -14.7°
